www.pogodaiklimat.ru

Погода и климат >> Архив погоды >> Великобритания >> Порт-Эллен


ПОГОДА в Порт-Эллене

  • Прогноз погоды в Порт-Эллене
  • Монитор погоды в Порт-Эллене

АРХИВ ПОГОДЫ в Порт-Эллене

Время (UTC), дата Ветер
(напр.,м/с)
 
Видим.   Явления Облачность Т
(С)
Тd
(С)
f
(%)
Тe
(С)
Тes
(С)
Комфортность P
(гПа)
Po
(гПа)
Тmin
(С)
Tmax
(С)
R
(мм)
R24
(мм)
S
(см)
22 12.06 С 8 14 км слаб. дождь н/о +9.9 +8.5 91 +6 +6 1014.8 1013.1
23 12.06 С 6 30 км в посл. час дождь н/о +9.7 +8.5 92 +6 +6 1013.8 1012.1
00 13.06 С 6 18 км слаб. ливневой дождь н/о +9.5 +8.4 93 +6 +6 1013.2 1011.5 0.8
01 13.06 С 8 30 км слаб. морось с дождем н/о +9.4 +7.6 89 +5 +5 1012.3 1010.6
02 13.06 С 6 40 км в посл. час дождь н/о +9.1 +7.6 90 +5 +5 1011.4 1009.7
03 13.06 С 6 45 км н/о +9.2 +7.7 90 +5 +5 1010.8 1009.1
04 13.06 С 6 45 км н/о +9.2 +7.5 89 +5 +5 1010.2 1008.5
05 13.06 С 7 55 км н/о +9.1 +6.9 86 +5 +5 1009.8 1008.1
06 13.06 С 6 45 км н/о +8.4 +5.7 83 +5 +5 1009.1 1007.4 +8.4 0.8
07 13.06 С 9 50 км н/о +10.1 +5.8 75 +6 +6 1008.6 1006.9
08 13.06 С 6 45 км н/о +10.6 +4.9 68 +7 +7 1008.3 1006.6
09 13.06 С 6 50 км н/о +11.0 +4.4 64 +8 +8 1007.6 1005.9
10 13.06 С 7 55 км н/о +11.6 +4.0 60 +9 +9 1006.9 1005.2
11 13.06 СЗ 9 45 км н/о +11.6 +5.8 68 +8 +8 1006.1 1004.5
12 13.06 С 9
{13}
50 км н/о +10.9 +5.4 69 +7 +7 1005.7 1004.0
13 13.06 СЗ 8 45 км н/о +10.9 +5.7 70 +7 +7 1005.1 1003.5
14 13.06 С 9 55 км н/о +10.8 +5.4 69 +7 +7 1004.6 1002.9
15 13.06 С 8 50 км н/о +10.9 +5.2 68 +7 +7 1004.2 1002.5
16 13.06 С 6 55 км н/о +12.1 +5.5 64 +10 +10 1003.4 1001.7
17 13.06 СЗ 7 65 км н/о +11.2 +4.4 63 +8 +8 1003.0 1001.3
18 13.06 С 6 70 км н/о +11.3 +5.5 67 +8 +8 1002.7 1001.1 +13.6
19 13.06 СЗ 6 60 км н/о +10.8 +5.6 70 +8 +8 1002.7 1001.0
20 13.06 СЗ 5 45 км н/о +10.0 +6.1 77 +7 +7 1002.5 1000.8
21 13.06 СЗ 4 50 км н/о +9.3 +6.3 82 +6 +6 1002.6 1000.9
22 13.06 С 2 50 км н/о +6.1 +4.0 86 +4 +4 1002.7 1001.0
23 13.06 С 2 45 км н/о +7.6 +6.3 91 +5 +5 1002.6 1000.9
00 14.06 С 2 11 км н/о +6.7 +5.6 93 +5 +5 1002.4 1000.7 1
01 14.06 СЗ 4 40 км н/о +8.7 +7.4 92 +5 +5 1002.0 1000.3
02 14.06 З 5 50 км н/о +8.9 +6.8 87 +6 +6 1001.8 1000.1
03 14.06 З 4 55 км н/о +8.1 +6.5 90 +5 +5 1001.7 1000.0
04 14.06 З 2 60 км н/о +8.0 +7.1 94 +6 +6 1001.6 999.9
05 14.06 ЮЗ 4 50 км н/о +8.9 +6.8 87 +6 +6 1001.6 999.9
06 14.06 ЮЗ 5 50 км в посл. час дождь н/о +9.7 +7.3 85 +7 +7 1001.7 1000.1 +6.1 0.0
07 14.06 ЮЗ 7 40 км в посл. час дождь н/о +8.9 +7.9 93 +5 +5 1002.2 1000.5
08 14.06 Ю 6 7000 м дым н/о +8.8 +7.8 93 +5 +5 1002.6 1001.0
09 14.06 Ю 6 60 км н/о +9.9 +7.9 87 +6 +6 1002.9 1001.2
10 14.06 Ю 6 60 км н/о +11.0 +7.1 77 +8 +8 1003.2 1001.5
11 14.06 Ю 6 65 км в посл. час дождь н/о +11.7 +5.4 65 +9 +9 1003.5 1001.8
12 14.06 Ю 5 >70 км н/о +12.0 +6.5 69 +10 +10 1004.0 1002.3 0.6
13 14.06 ЮВ 7 65 км н/о +13.0 +6.8 66 +11 +11 1004.1 1002.5
14 14.06 ЮВ 7 45 км н/о +13.9 +7.0 63 +12 +12 1004.2 1002.5
15 14.06 ЮВ 9 35 км н/о +14.0 +9.2 73 +11 +11 1004.2 1002.5
16 14.06 ЮВ 9
{13}
35 км н/о +12.3 +8.4 77 +9 +9 1004.4 1002.7
17 14.06 ЮВ 8
{14}
27 км н/о +11.1 +8.5 84 +8 +8 1005.0 1003.3
18 14.06 ЮВ 7 20 км н/о +11.4 +9.7 89 +8 +8 1005.2 1003.5 +14.5 0.6
19 14.06 ЮВ 6 20 км в посл. час дождь н/о +10.8 +10.0 95 +7 +7 1005.0 1003.3
20 14.06 ЮВ 7 30 км н/о +10.8 +9.5 92 +7 +7 1005.0 1003.3
21 14.06 ЮВ 4 27 км слаб. ливневой дождь н/о +10.2 +9.4 95 +7 +7 1005.0 1003.3
22 14.06 ЮВ 4 30 км ливневой дождь н/о +10.0 +9.1 94 +7 +7 1005.0 1003.4
23 14.06 ЮВ 7 13 км в посл. час дождь н/о +10.6 +9.9 95 +7 +7 1004.9 1003.2
00 15.06 ЮВ 7 11 км н/о +11.0 +10.3 95 +8 +8 1005.0 1003.3 1
01 15.06 ЮВ 7 9000 м дымка н/о +10.9 +10.4 97 +7 +7 1005.0 1003.3
02 15.06 ЮВ 6 9000 м в посл. час дождь н/о +10.7 +10.3 97 +7 +7 1005.0 1003.3
03 15.06 ЮВ 6 16 км н/о +10.4 +9.9 97 +7 +7 1005.3 1003.6
04 15.06 ЮВ 6 14 км н/о +10.2 +9.7 97 +7 +7 1005.4 1003.7
05 15.06 ЮВ 5 15 км н/о +10.4 +10.0 97 +7 +7 1005.7 1004.0
06 15.06 ЮВ 5 13 км в посл. час дождь н/о +10.7 +10.3 97 +8 +8 1006.0 1004.3 +10.0 1
07 15.06 ЮВ 5 15 км в посл. час дождь н/о +10.8 +10.3 97 +8 +8 1006.4 1004.7
08 15.06 ЮВ 5 23 км в посл. час дождь н/о +10.9 +10.2 95 +8 +8 1006.5 1004.8
09 15.06 ЮВ 4 11 км ливневой дождь н/о +10.9 +9.7 92 +8 +8 1006.8 1005.1
10 15.06 ЮВ 4 19 км слаб. дождь н/о +11.8 +10.5 92 +9 +9 1006.8 1005.1
11 15.06 ЮВ 4 25 км слаб. морось с дождем н/о +11.7 +10.0 89 +9 +9 1007.0 1005.3
12 15.06 ЮВ 4 30 км в посл. час дождь н/о +12.3 +10.1 86 +10 +10 1007.1 1005.4 1
13 15.06 ЮВ 3 5000 м в посл. час дождь н/о +11.8 +10.4 91 +10 +10 1007.2 1005.5
14 15.06 ЮВ 2 2400 м морось н/о +11.2 +10.5 95 +10 +10 1007.2 1005.5
15 15.06 СЗ 4 13 км в посл. час дождь н/о +10.9 +10.6 98 +8 +8 1007.1 1005.4
16 15.06 СЗ 3 45 км н/о +11.9 +11.1 95 +10 +10 1006.8 1005.2
17 15.06 СЗ 3 1500 м морось н/о +11.3 +10.6 95 +9 +9 1006.8 1005.1
18 15.06 СЗ 3 3100 м дождь н/о +10.7 +10.4 98 +8 +8 1007.1 1005.4 +12.6 8
19 15.06 СЗ 4 13 км слаб. дождь н/о +10.4 +10.1 98 +8 +8 1007.0 1005.3
20 15.06 С 2 45 км в посл. час дождь н/о +10.3 +10.0 98 +9 +9 1007.4 1005.7
21 15.06 Ю 1 30 км н/о +10.1 +9.8 98 +9 +9 1007.9 1006.2
22 15.06 Ю 2 19 км н/о +8.5 +8.2 98 +6 +6 1008.5 1006.8
23 15.06 ЮВ 2 20 км н/о +8.9 +8.7 99 +7 +7 1008.2 1006.5
00 16.06 В 3 35 км н/о +9.0 +8.8 99 +7 +7 1008.1 1006.4 2
01 16.06 Ю 1 45 км слаб. ливневой дождь н/о +8.9 +8.6 98 +8 +8 1008.1 1006.4
02 16.06 ЮВ 3 35 км в посл. час дождь н/о +8.7 +8.3 97 +6 +6 1007.7 1006.0
03 16.06 ЮВ 3 18 км н/о +7.9 +7.6 98 +5 +5 1007.7 1006.0
04 16.06 В 3 35 км н/о +7.3 +7.0 98 +4 +4 1007.6 1005.9
05 16.06 ЮВ 3 30 км н/о +8.7 +8.5 99 +6 +6 1007.8 1006.1
06 16.06 ЮВ 3 28 км н/о +9.8 +9.5 98 +7 +7 1008.0 1006.4 +7.3 2
07 16.06 ЮВ 3 25 км слаб. ливневой дождь н/о +10.1 +9.6 97 +8 +8 1008.3 1006.6
08 16.06 ЮВ 3 30 км в посл. час дождь н/о +11.1 +10.1 94 +9 +9 1008.4 1006.7
09 16.06 Ю 5 40 км н/о +12.0 +9.2 83 +10 +10 1008.5 1006.8
10 16.06 Ю 5 35 км н/о +11.7 +9.2 85 +9 +9 1008.5 1006.9
11 16.06 Ю 4 65 км н/о +14.7 +9.4 71 +14 +14 1008.5 1006.8
12 16.06 ЮВ 6 45 км н/о +14.2 +9.4 73 +12 +12 1008.4 1006.7 0.2
13 16.06 ЮВ 6 40 км н/о +14.7 +9.9 73 +13 +13 1008.4 1006.7
14 16.06 ЮВ 8 35 км н/о +12.9 +9.3 79 +10 +10 1008.3 1006.6
15 16.06 ЮВ 7 35 км н/о +13.7 +9.8 77 +11 +11 1007.9 1006.2
16 16.06 ЮВ 8 29 км н/о +13.3 +10.4 83 +11 +11 1007.5 1005.9
17 16.06 ЮВ 8 30 км н/о +12.7 +9.9 83 +10 +10 1007.0 1005.3
18 16.06 ЮВ 8 35 км н/о +12.4 +9.3 81 +9 +9 1006.6 1004.9 +15.3 0.2
19 16.06 ЮВ 7 28 км н/о +12.0 +10.2 89 +9 +9 1006.3 1004.6
20 16.06 ЮВ 5 6000 м дождь н/о +11.3 +10.6 95 +8 +8 1005.9 1004.2
21 16.06 ЮВ 4 10 км слаб. дождь н/о +11.2 +10.7 97 +9 +9 1005.3 1003.6
22 16.06 Ю 2 8000 м дождь н/о +11.3 +10.9 97 +10 +10 1004.9 1003.2
23 16.06 В 3 8000 м слаб. морось н/о +10.8 +10.5 98 +9 +9 1004.3 1002.6
00 17.06 ЮВ 4 18 км в посл. час морось н/о +11.1 +10.9 99 +8 +8 1004.4 1002.7 5
01 17.06 Ю 4 29 км в посл. час дождь н/о +11.0 +10.8 99 +9 +9 1004.8 1003.1
02 17.06 ЮЗ 6 35 км в посл. час дождь н/о +10.3 +9.8 97 +7 +7 1005.5 1003.9
03 17.06 Ю 3 40 км н/о +9.1 +8.4 95 +7 +7 1005.9 1004.2
04 17.06 Ю 4 35 км н/о +9.6 +9.1 97 +7 +7 1006.1 1004.5
05 17.06 ЮВ 4 30 км н/о +10.1 +9.6 97 +7 +7 1006.2 1004.5
06 17.06 Ю 5 24 км н/о +11.1 +10.2 94 +8 +8 1006.2 1004.6 +9.1 5
07 17.06 Ю 6 27 км н/о +11.6 +10.2 91 +9 +9 1006.4 1004.7
08 17.06 Ю 7 27 км н/о +12.0 +10.1 88 +9 +9 1006.5 1004.8
09 17.06 Ю 7 30 км н/о +12.9 +10.4 85 +10 +10 1006.2 1004.5
10 17.06 Ю 7
{13}
30 км н/о +13.8 +10.5 80 +11 +11 1006.2 1004.5
11 17.06 Ю 9
{13}
40 км н/о +15.5 +10.5 72 +13 +13 1005.8 1004.1
12 17.06 Ю 8
{15}
30 км в посл. час дождь н/о +14.6 +12.8 89 +12 +12 1005.8 1004.1 1
13 17.06 ЮЗ 9
{14}
29 км в посл. час дождь н/о +12.9 +9.5 80 +10 +10 1006.8 1005.2
14 17.06 ЮЗ 8 26 км н/о +14.2 +11.7 85 +12 +12 1007.6 1005.9
15 17.06 ЮЗ 6 25 км н/о +14.6 +11.7 83 +13 +13 1008.2 1006.6
16 17.06 З 5 29 км н/о +13.4 +10.5 83 +12 +12 1008.6 1006.9
17 17.06 ЮЗ 3 28 км н/о +13.8 +11.1 84 +13 +13 1008.8 1007.1
18 17.06 ЮЗ 3 30 км н/о +13.1 +10.6 85 +12 +12 1009.1 1007.4 +16.1 1
19 17.06 З 3 29 км н/о +13.3 +11.0 86 +12 +12 1009.3 1007.7
20 17.06 ЮЗ 3 30 км н/о +12.6 +10.0 84 +11 +11 1009.7 1008.0
21 17.06 Ю 3 30 км н/о +12.1 +9.5 84 +10 +10 1009.8 1008.1
22 17.06 Ю 3 28 км н/о +10.2 +9.0 92 +8 +8 1009.9 1008.2
23 17.06 ЮВ 4 23 км н/о +8.8 +8.3 97 +6 +6 1010.0 1008.3
00 18.06 ЮВ 4 26 км в посл. час дождь со снегом н/о +9.4 +9.1 98 +6 +6 1009.8 1008.1 3
01 18.06 Ю 5 35 км н/о +10.9 +9.8 93 +8 +8 1009.5 1007.9
02 18.06 Ю 4 30 км н/о +10.3 +9.4 94 +8 +8 1009.4 1007.7
03 18.06 ЮЗ 7 35 км н/о +11.0 +9.1 88 +7 +7 1009.2 1007.5
04 18.06 Ю 5 35 км н/о +10.2 +8.6 90 +7 +7 1009.0 1007.3
05 18.06 Ю 6 6000 м слаб. ливневой дождь н/о +10.9 +9.2 89 +8 +8 1009.1 1007.4
06 18.06 Ю 7 29 км в посл. час дождь н/о +10.8 +9.0 89 +7 +7 1009.1 1007.4 +8.5 0.0
07 18.06 ЮЗ 6 20 км в посл. час дождь н/о +10.8 +9.6 92 +7 +7 1009.6 1007.9
08 18.06 ЮЗ 7 21 км н/о +11.7 +10.3 91 +8 +8 1009.8 1008.1
09 18.06 ЮЗ 6 23 км н/о +12.3 +10.5 89 +10 +10 1010.0 1008.3
10 18.06 ЮЗ 6 25 км н/о +13.7 +11.5 87 +11 +11 1010.2 1008.5
11 18.06 ЮЗ 6 35 км н/о +14.4 +11.2 81 +12 +12 1010.5 1008.8
12 18.06 ЮЗ 7 30 км н/о +13.1 +10.8 86 +11 +11 1010.7 1009.0 0.0
13 18.06 ЮЗ 6 45 км н/о +14.1 +10.7 80 +12 +12 1010.6 1008.9
14 18.06 ЮЗ 5 35 км н/о +13.8 +10.2 79 +12 +12 1010.8 1009.1
15 18.06 ЮЗ 3 40 км н/о +14.0 +10.0 77 +13 +13 1010.7 1009.0
16 18.06 ЮЗ 3 40 км н/о +13.2 +9.7 79 +12 +12 1010.5 1008.8
17 18.06 ЮЗ 3 7000 м ливневой дождь н/о +11.8 +10.9 94 +10 +10 1010.5 1008.8
18 18.06 Ю 2 35 км в посл. час дождь н/о +12.1 +11.3 95 +11 +11 1010.3 1008.6 +15.2 2
19 18.06 ЮВ 3 30 км н/о +12.3 +11.3 94 +11 +11 1010.1 1008.4
20 18.06 ЮВ 3 14 км ливневой дождь н/о +11.7 +11.1 96 +10 +10 1010.1 1008.4
21 18.06 ЮВ 3 17 км в посл. час дождь н/о +11.1 +10.7 97 +9 +9 1010.0 1008.3
22 18.06 ЮВ 3 30 км в посл. час дождь н/о +11.2 +10.8 97 +9 +9 1009.9 1008.2
23 18.06 Ю 1 2100 м сильн. ливневой дождь н/о +11.1 +10.7 97 +11 +11 1009.6 1007.9
00 19.06 ЮВ 2 26 км в посл. час дождь н/о +10.8 +10.4 97 +10 +10 1009.0 1007.3 3
01 19.06 ЮВ 4 15 км н/о +10.3 +10.0 98 +8 +8 1008.7 1007.0
02 19.06 ЮВ 4 8000 м дымка н/о +9.0 +8.8 99 +6 +6 1008.4 1006.7
03 19.06 ЮВ 2 30 км н/о +9.0 +8.7 98 +7 +7 1008.0 1006.3
04 19.06 Ю 3 26 км н/о +10.5 +10.1 97 +8 +8 1007.7 1006.0
05 19.06 Ю 3 30 км н/о +10.9 +10.2 95 +9 +9 1007.4 1005.7
06 19.06 Ю 5 35 км н/о +11.8 +10.2 90 +9 +9 1007.3 1005.6 +8.7 3
07 19.06 Ю 5 35 км н/о +11.5 +9.7 89 +9 +9 1007.3 1005.6
08 19.06 ЮЗ 6 35 км н/о +11.8 +9.8 88 +9 +9 1007.0 1005.3
09 19.06 ЮЗ 7 35 км н/о +13.5 +10.6 83 +11 +11 1006.8 1005.2
10 19.06 ЮЗ 7 40 км н/о +14.1 +11.3 83 +12 +12 1006.8 1005.1
11 19.06 ЮЗ 7 35 км н/о +14.4 +10.9 79 +12 +12 1006.7 1005.1
12 19.06 ЮЗ 5 35 км н/о +13.8 +11.0 83 +12 +12 1006.9 1005.3
13 19.06 ЮЗ 4 40 км н/о +14.1 +10.5 79 +13 +13 1006.8 1005.2
14 19.06 ЮЗ 4 40 км слаб. ливневой дождь н/о +13.4 +10.2 81 +12 +12 1006.8 1005.2
15 19.06 ЮЗ 3 40 км в посл. час дождь н/о +12.9 +10.5 85 +11 +11 1006.6 1005.0
17 19.06 ЮЗ 2 30 км слаб. ливневой дождь н/о +12.5 +10.6 88 +12 +12 1006.3 1004.6
18 19.06 ЮЗ 3 29 км в посл. час дождь н/о +12.4 +10.8 90 +11 +11 1006.1 1004.4 +14.9 1
19 19.06 З 4 19 км слаб. ливневой дождь н/о +11.5 +10.1 91 +9 +9 1006.0 1004.3
20 19.06 ЮЗ 3 9000 м слаб. дождь н/о +11.2 +10.3 94 +9 +9 1005.8 1004.2
21 19.06 З 5 24 км слаб. дождь н/о +10.4 +8.7 89 +7 +7 1006.1 1004.4

 

Местоположение метеостанции Порт-Эллен (Великобритания): широта 55.68 долгота -6.25 высота над уровнем моря 17 м.

В архиве по умолчанию представлена погода в Порт-Эллене за последнюю неделю. Архивные данные за месяц целиком и за предыдущие месяцы, начиная с января 2011 года, Вы можете получить, выбрав интересующий диапазон дат из раскрывающегося списка и нажав кнопку "Ввод!".


*Определитесь, кто Вы:
робот инопланетянин человек

Внимание! Время в таблицах - всемирное. Для получения местного времени необходимо прибавить поправку, которая равна 0 ч.

Смотрите также архив погоды в соседних городах и на ближайших метеорологических станциях:

Погода в Макрайханише (Великобритания) (44 км)
Погода в Баллипатрик Форест (Великобритания) (56 км)
Погода на Магиллигане (Великобритания) (73 км)
Погода в Малин Хед (Ирландия) (77 км)
Погода в Портгленоне (Великобритания) (91 км)
Погода на Тири (Великобритания) (99 км)
Погода в Прествике (Великобритания) (106 км)
Погода в Глазго (Великобритания) (110 км)
Погода на Озере Lough Fea (Великобритания) (113 км)
Погода в Белфасте (Великобритания) (115 км)

Пояснения к столбцам:

Ветер - указаны скорость ветра в м/с - средняя за 10 мин, порывы в срок и между сроками (в фигурных скобках) и направление, откуда дует ветер: С - северный, СВ - северо-восточный, В - восточный, ЮВ - юго-восточный, Ю - южный, ЮЗ - юго-западный, З - западный, СЗ - северо-западный.
Видимость - горизонтальная дальность видимости в метрах или километрах. При видимости от 1 до 10 км при отсутствии осадков обычно наблюдается дымка, при ухудшении видимости до 1 км и менее - туман. В сухую погоду видимость может ухудшаться дымом, пылью или мглою.
Явления - указаны атмосферные явления, наблюдавшиеся в срок или в последний час перед сроком; фигурными скобками обозначены явления, наблюдавшиеся между сроками (за 1-3 часа до срока); квадратными скобками обозначены град или гололедные отложения с указанием их диаметра в мм.
Облачность - указаны через наклонную черту общая и нижняя облачность в баллах и высота нижней границы облаков в метрах; квадратными скобками обозначены формы облаков: Ci - перистые, Cs - перисто-слоистые, Cc - перисто-кучевые, Ac - высококучевые, As - высокослоистые, Sc - слоисто-кучевые, Ns - слоисто-дождевые, Cu - кучевые, Cb - кучево-дождевые. Подробнее классификацию облаков см. в Атласе облаков (PDF).
T - Температура воздуха - температура, измеренная на высоте 2 м над землей.
Td - Температура точки росы - температура, при понижении до которой содержащийся в воздухе водяной пар достигнет насыщения.
f - Относительная влажность воздуха - влажноcть воздуха, измеренная на высоте 2 м над землей.
Te - Эффективная температура - температура, которую ощущает одетый по сезону человек в тени. Характеристика душности погоды. При расчете учитывается влияние влажности воздуха и скорости ветра на теплоощущения человека.
Tes - Эффективная температура на солнце - температура, которую ощущает человек, с поправкой на солнечный нагрев. Характеристика знойности погоды. Зависит от высоты солнца над горизонтом, облачности и скорости ветра. Ночью, в пасмурную погоду, а также при ветре 12 м/с и более поправка равна нулю.
P - Атмосферное давление - приведенное к уровню моря атмосферное давление.
Po - Атмосферное давление - измеренное на уровне метеостанции атмосферное давление.
Tmin - Минимальная температура - минимум температуры воздуха на высоте 2 м над землей.
Tmax - Максимальная температура - максимум температуры воздуха на высоте 2 м над землей.
R - Количество осадков - Количество выпавших осадков за период времени, мм. При наведении курсора мыши на число - период времени, за который выпало указанное количество осадков.
R24 - Количество осадков - Количество выпавших осадков за 24 часа, мм.
S - Снежный покров - Высота снежного покрова, см. При наведении курсора мыши на число - состояние снежного покрова и степень покрытия местности в баллах.